Time,TemperatureF,DewpointF,PressureIn,WindDirection,WindDirectionDegrees,WindSpeedMPH,WindSpeedGustMPH,Humidity,HourlyPrecipIn,Conditions,Clouds,dailyrainin,SoftwareType,DateUTC
2013-07-13 00:02:00,65.0,59.0,30.16,ENE,67,0.0,-999.0,80,-99.99,,,-99.99,,2013-07-13 04:02:00,
2013-07-13 00:22:00,65.0,59.0,30.16,ENE,67,0.0,-999.0,80,-99.99,,,-99.99,,2013-07-13 04:22:00,
2013-07-13 00:32:00,65.0,58.0,30.16,ENE,66,0.0,-999.0,79,-99.99,,,-99.99,,2013-07-13 04:32:00,
2013-07-13 00:43:00,65.0,59.0,30.17,ENE,66,0.0,-999.0,80,-99.99,,,-99.99,,2013-07-13 04:43:00,
2013-07-13 00:52:00,65.0,59.0,30.17,ENE,66,0.0,-999.0,80,-99.99,,,-99.99,,2013-07-13 04:52:00,
2013-07-13 01:01:00,64.0,58.0,30.17,ENE,66,0.0,-999.0,80,-99.99,,,-99.99,,2013-07-13 05:01:00,
2013-07-13 01:11:00,64.0,58.0,30.17,ENE,66,0.0,-999.0,80,-99.99,,,-99.99,,2013-07-13 05:11:00,
2013-07-13 01:22:00,64.0,58.0,30.17,ENE,66,0.0,-999.0,81,-99.99,,,-99.99,,2013-07-13 05:22:00,
2013-07-13 01:42:00,64.0,58.0,30.17,ENE,65,0.0,-999.0,81,-99.99,,,-99.99,,2013-07-13 05:42:00,
2013-07-13 01:52:00,64.0,58.0,30.17,ENE,65,0.0,-999.0,81,-99.99,,,-99.99,,2013-07-13 05:52:00,
2013-07-13 02:02:00,64.0,58.0,30.17,ENE,58,0.0,-999.0,81,-99.99,,,-99.99,,2013-07-13 06:02:00,
2013-07-13 02:11:00,64.0,58.0,30.17,ENE,58,0.0,-999.0,81,-99.99,,,-99.99,,2013-07-13 06:11:00,
2013-07-13 02:32:00,64.0,58.0,30.17,ENE,62,0.0,-999.0,81,-99.99,,,-99.99,,2013-07-13 06:32:00,
2013-07-13 02:52:00,64.0,58.0,30.17,ENE,62,0.0,-999.0,81,-99.99,,,-99.99,,2013-07-13 06:52:00,
2013-07-13 03:02:00,64.0,58.0,30.18,ENE,62,0.0,-999.0,81,-99.99,,,-99.99,,2013-07-13 07:02:00,
2013-07-13 03:11:00,64.0,58.0,30.18,ENE,62,0.0,-999.0,81,-99.99,,,-99.99,,2013-07-13 07:11:00,
2013-07-13 03:22:00,64.0,58.0,30.18,ENE,61,0.0,-999.0,82,-99.99,,,-99.99,,2013-07-13 07:22:00,
2013-07-13 03:33:00,64.0,58.0,30.18,NE,35,0.0,-999.0,82,-99.99,,,-99.99,,2013-07-13 07:33:00,
2013-07-13 03:44:00,64.0,59.0,30.19,ENE,71,0.0,-999.0,83,-99.99,,,-99.99,,2013-07-13 07:44:00,
2013-07-13 03:53:00,64.0,59.0,30.19,ENE,71,0.0,-999.0,83,-99.99,,,-99.99,,2013-07-13 07:53:00,
2013-07-13 04:02:00,64.0,59.0,30.19,NE,39,0.0,-999.0,83,-99.99,,,-99.99,,2013-07-13 08:02:00,
2013-07-13 04:22:00,64.0,59.0,30.19,ENE,69,0.0,-999.0,83,-99.99,,,-99.99,,2013-07-13 08:22:00,
2013-07-13 04:33:00,64.0,59.0,30.19,ENE,71,0.0,-999.0,83,-99.99,,,-99.99,,2013-07-13 08:33:00,
2013-07-13 04:43:00,64.0,59.0,30.19,ENE,66,0.0,-999.0,84,-99.99,,,-99.99,,2013-07-13 08:43:00,
2013-07-13 04:52:00,64.0,59.0,30.19,ENE,66,0.0,-999.0,84,-99.99,,,-99.99,,2013-07-13 08:52:00,
2013-07-13 05:02:00,64.0,59.0,30.20,ENE,60,0.0,-999.0,84,-99.99,,,-99.99,,2013-07-13 09:02:00,
2013-07-13 05:22:00,64.0,59.0,30.21,ENE,59,0.0,-999.0,84,-99.99,,,-99.99,,2013-07-13 09:22:00,
2013-07-13 05:33:00,64.0,59.0,30.21,ENE,62,0.0,-999.0,84,-99.99,,,-99.99,,2013-07-13 09:33:00,
2013-07-13 05:43:00,64.0,59.0,30.22,ENE,61,0.0,-999.0,84,-99.99,,,-99.99,,2013-07-13 09:43:00,
2013-07-13 05:53:00,64.0,59.0,30.22,ENE,61,0.0,-999.0,84,-99.99,,,-99.99,,2013-07-13 09:53:00,
2013-07-13 06:01:00,64.0,59.0,30.22,ENE,61,0.0,-999.0,84,-99.99,,,-99.99,,2013-07-13 10:01:00,
2013-07-13 06:22:00,64.0,59.0,30.22,ENE,60,0.0,-999.0,84,-99.99,,,-99.99,,2013-07-13 10:22:00,
2013-07-13 06:32:00,65.0,60.0,30.22,ENE,64,0.0,-999.0,84,-99.99,,,-99.99,,2013-07-13 10:32:00,
2013-07-13 06:43:00,65.0,60.0,30.23,NE,51,0.0,-999.0,83,-99.99,,,-99.99,,2013-07-13 10:43:00,
2013-07-13 07:02:00,65.0,60.0,30.23,ENE,67,0.0,-999.0,83,-99.99,,,-99.99,,2013-07-13 11:02:00,
2013-07-13 07:11:00,65.0,60.0,30.23,ENE,67,0.0,-999.0,83,-99.99,,,-99.99,,2013-07-13 11:11:00,
2013-07-13 07:22:00,65.0,60.0,30.23,ENE,59,0.0,-999.0,83,-99.99,,,-99.99,,2013-07-13 11:22:00,
2013-07-13 07:32:00,65.0,59.0,30.23,ENE,58,0.0,-999.0,82,-99.99,,,-99.99,,2013-07-13 11:32:00,
2013-07-13 07:52:00,65.0,59.0,30.23,ENE,63,1.0,-999.0,82,-99.99,,,-99.99,,2013-07-13 11:52:00,
2013-07-13 08:02:00,66.0,60.0,30.24,ENE,62,1.0,-999.0,81,-99.99,,,-99.99,,2013-07-13 12:02:00,
2013-07-13 08:12:00,66.0,60.0,30.24,ENE,62,1.0,-999.0,81,-99.99,,,-99.99,,2013-07-13 12:12:00,
2013-07-13 08:32:00,66.0,60.0,30.25,ENE,63,0.0,-999.0,81,-99.99,,,-99.99,,2013-07-13 12:32:00,
2013-07-13 08:52:00,67.0,61.0,30.26,ENE,63,0.0,-999.0,81,-99.99,,,-99.99,,2013-07-13 12:52:00,
2013-07-13 09:01:00,67.0,61.0,30.26,ENE,63,0.0,-999.0,81,-99.99,,,-99.99,,2013-07-13 13:01:00,
2013-07-13 09:12:00,68.0,61.0,30.26,ENE,60,0.0,-999.0,79,-99.99,,,-99.99,,2013-07-13 13:12:00,
2013-07-13 09:22:00,69.0,62.0,30.26,ENE,57,0.0,-999.0,78,-99.99,,,-99.99,,2013-07-13 13:22:00,
2013-07-13 09:43:00,71.0,63.0,30.25,NE,51,0.0,-999.0,75,-99.99,,,-99.99,,2013-07-13 13:43:00,
2013-07-13 09:53:00,71.0,63.0,30.25,NE,51,0.0,-999.0,75,-99.99,,,-99.99,,2013-07-13 13:53:00,
2013-07-13 10:11:00,72.0,63.0,30.26,NE,55,0.0,-999.0,74,-99.99,,,-99.99,,2013-07-13 14:11:00,
2013-07-13 10:22:00,72.0,64.0,30.25,NE,50,0.0,-999.0,76,-99.99,,,-99.99,,2013-07-13 14:22:00,
2013-07-13 10:32:00,73.0,65.0,30.26,NE,47,0.0,-999.0,75,-99.99,,,-99.99,,2013-07-13 14:32:00,
2013-07-13 10:53:00,73.0,65.0,30.26,ESE,116,0.0,-999.0,76,-99.99,,,-99.99,,2013-07-13 14:53:00,
2013-07-13 11:02:00,74.0,65.0,30.27,East,84,0.0,-999.0,74,-99.99,,,-99.99,,2013-07-13 15:02:00,
2013-07-13 11:12:00,74.0,65.0,30.27,East,84,0.0,-999.0,74,-99.99,,,-99.99,,2013-07-13 15:12:00,
2013-07-13 11:22:00,74.0,66.0,30.26,NE,46,1.0,-999.0,75,-99.99,,,-99.99,,2013-07-13 15:22:00,
2013-07-13 11:33:00,74.0,66.0,30.27,ENE,74,1.0,-999.0,75,-99.99,,,-99.99,,2013-07-13 15:33:00,
2013-07-13 11:43:00,74.0,66.0,30.27,SW,223,1.0,-999.0,76,-99.99,,,-99.99,,2013-07-13 15:43:00,
2013-07-13 11:53:00,74.0,66.0,30.27,SW,223,1.0,-999.0,76,-99.99,,,-99.99,,2013-07-13 15:53:00,
2013-07-13 12:02:00,77.0,67.0,30.26,South,188,0.0,-999.0,72,-99.99,,,-99.99,,2013-07-13 16:02:00,
2013-07-13 12:12:00,77.0,67.0,30.26,South,188,0.0,-999.0,72,-99.99,,,-99.99,,2013-07-13 16:12:00,
2013-07-13 12:22:00,76.0,67.0,30.26,NE,52,2.0,-999.0,73,-99.99,,,-99.99,,2013-07-13 16:22:00,
2013-07-13 12:33:00,75.0,66.0,30.26,NE,51,1.0,-999.0,74,-99.99,,,-99.99,,2013-07-13 16:33:00,
2013-07-13 12:43:00,75.0,66.0,30.27,NE,54,0.0,-999.0,74,-99.99,,,-99.99,,2013-07-13 16:43:00,
2013-07-13 12:53:00,75.0,66.0,30.27,NE,54,0.0,-999.0,74,-99.99,,,-99.99,,2013-07-13 16:53:00,
2013-07-13 13:01:00,76.0,67.0,30.27,NE,54,0.0,-999.0,75,-99.99,,,-99.99,,2013-07-13 17:01:00,
2013-07-13 13:12:00,77.0,68.0,30.27,NE,55,0.0,-999.0,73,-99.99,,,-99.99,,2013-07-13 17:12:00,
2013-07-13 13:22:00,77.0,68.0,30.27,NE,55,0.0,-999.0,73,-99.99,,,-99.99,,2013-07-13 17:22:00,
2013-07-13 13:33:00,77.0,67.0,30.27,ENE,74,0.0,-999.0,72,-99.99,,,-99.99,,2013-07-13 17:33:00,
2013-07-13 13:43:00,77.0,68.0,30.27,NE,50,0.0,-999.0,73,-99.99,,,-99.99,,2013-07-13 17:43:00,
2013-07-13 13:52:00,77.0,68.0,30.27,NE,50,0.0,-999.0,73,-99.99,,,-99.99,,2013-07-13 17:52:00,
2013-07-13 14:02:00,77.0,68.0,30.27,NE,53,0.0,-999.0,73,-99.99,,,-99.99,,2013-07-13 18:02:00,
2013-07-13 14:22:00,77.0,68.0,30.26,ESE,117,0.0,-999.0,74,-99.99,,,-99.99,,2013-07-13 18:22:00,
2013-07-13 14:32:00,77.0,68.0,30.27,SSE,148,0.0,-999.0,74,-99.99,,,-99.99,,2013-07-13 18:32:00,
2013-07-13 14:44:00,78.0,69.0,30.26,East,96,0.0,-999.0,73,-99.99,,,-99.99,,2013-07-13 18:44:00,
2013-07-13 14:53:00,78.0,69.0,30.26,East,96,0.0,-999.0,73,-99.99,,,-99.99,,2013-07-13 18:53:00,
2013-07-13 15:02:00,80.0,69.0,30.26,ENE,62,0.0,-999.0,70,-99.99,,,-99.99,,2013-07-13 19:02:00,
2013-07-13 15:11:00,80.0,69.0,30.26,East,91,0.0,-999.0,70,-99.99,,,-99.99,,2013-07-13 19:11:00,
2013-07-13 15:22:00,80.0,69.0,30.26,East,91,0.0,-999.0,70,-99.99,,,-99.99,,2013-07-13 19:22:00,
2013-07-13 15:32:00,82.0,70.0,30.26,WSW,243,0.0,-999.0,67,-99.99,,,-99.99,,2013-07-13 19:32:00,
2013-07-13 15:44:00,83.0,70.0,30.25,NE,53,0.0,-999.0,66,-99.99,,,-99.99,,2013-07-13 19:44:00,
2013-07-13 15:52:00,83.0,70.0,30.25,NE,53,0.0,-999.0,66,-99.99,,,-99.99,,2013-07-13 19:52:00,
2013-07-13 16:01:00,82.0,70.0,30.25,ENE,71,0.0,-999.0,67,-99.99,,,-99.99,,2013-07-13 20:01:00,
2013-07-13 16:11:00,81.0,70.0,30.25,NE,51,0.0,-999.0,69,-99.99,,,-99.99,,2013-07-13 20:11:00,
2013-07-13 16:22:00,81.0,70.0,30.25,NE,51,0.0,-999.0,69,-99.99,,,-99.99,,2013-07-13 20:22:00,
2013-07-13 16:33:00,80.0,70.0,30.25,SSE,150,0.0,-999.0,72,-99.99,,,-99.99,,2013-07-13 20:33:00,
2013-07-13 16:43:00,79.0,70.0,30.24,South,171,0.0,-999.0,73,-99.99,,,-99.99,,2013-07-13 20:43:00,
2013-07-13 16:52:00,79.0,70.0,30.24,South,171,0.0,-999.0,73,-99.99,,,-99.99,,2013-07-13 20:52:00,
2013-07-13 17:02:00,79.0,70.0,30.24,South,177,0.0,-999.0,74,-99.99,,,-99.99,,2013-07-13 21:02:00,
2013-07-13 17:12:00,79.0,70.0,30.24,South,177,0.0,-999.0,74,-99.99,,,-99.99,,2013-07-13 21:12:00,
2013-07-13 17:22:00,79.0,70.0,30.24,SW,217,0.0,-999.0,73,-99.99,,,-99.99,,2013-07-13 21:22:00,
2013-07-13 17:32:00,79.0,70.0,30.24,South,172,0.0,-999.0,74,-99.99,,,-99.99,,2013-07-13 21:32:00,
2013-07-13 17:43:00,79.0,70.0,30.24,South,171,0.0,-999.0,74,-99.99,,,-99.99,,2013-07-13 21:43:00,
2013-07-13 17:53:00,79.0,70.0,30.24,South,171,0.0,-999.0,74,-99.99,,,-99.99,,2013-07-13 21:53:00,
2013-07-13 18:01:00,79.0,70.0,30.24,SSE,158,0.0,-999.0,74,-99.99,,,-99.99,,2013-07-13 22:01:00,
2013-07-13 18:12:00,78.0,69.0,30.24,SSE,160,0.0,-999.0,75,-99.99,,,-99.99,,2013-07-13 22:12:00,
2013-07-13 18:22:00,78.0,69.0,30.24,SSE,160,0.0,-999.0,75,-99.99,,,-99.99,,2013-07-13 22:22:00,
2013-07-13 18:32:00,78.0,70.0,30.24,SSE,160,0.0,-999.0,77,-99.99,,,-99.99,,2013-07-13 22:32:00,
2013-07-13 18:43:00,77.0,70.0,30.24,SSE,160,0.0,-999.0,78,-99.99,,,-99.99,,2013-07-13 22:43:00,
2013-07-13 19:02:00,77.0,70.0,30.25,SSE,160,0.0,-999.0,79,-99.99,,,-99.99,,2013-07-13 23:02:00,
2013-07-13 19:11:00,77.0,70.0,30.25,South,183,0.0,-999.0,78,-99.99,,,-99.99,,2013-07-13 23:11:00,
2013-07-13 19:32:00,76.0,69.0,30.26,South,182,0.0,-999.0,79,-99.99,,,-99.99,,2013-07-13 23:32:00,
2013-07-13 19:42:00,75.0,68.0,30.26,South,182,0.0,-999.0,80,-99.99,,,-99.99,,2013-07-13 23:42:00,
2013-07-13 19:53:00,75.0,68.0,30.26,South,182,0.0,-999.0,80,-99.99,,,-99.99,,2013-07-13 23:53:00,
2013-07-13 20:01:00,75.0,69.0,30.26,South,182,0.0,-999.0,82,-99.99,,,-99.99,,2013-07-14 00:01:00,
2013-07-13 20:12:00,74.0,68.0,30.26,South,182,0.0,-999.0,83,-99.99,,,-99.99,,2013-07-14 00:12:00,
2013-07-13 20:22:00,74.0,68.0,30.26,South,182,0.0,-999.0,83,-99.99,,,-99.99,,2013-07-14 00:22:00,
2013-07-13 20:33:00,73.0,68.0,30.27,South,182,0.0,-999.0,85,-99.99,,,-99.99,,2013-07-14 00:33:00,
2013-07-13 20:42:00,73.0,69.0,30.27,South,181,0.0,-999.0,86,-99.99,,,-99.99,,2013-07-14 00:42:00,
2013-07-13 20:53:00,73.0,69.0,30.27,South,181,0.0,-999.0,86,-99.99,,,-99.99,,2013-07-14 00:53:00,
2013-07-13 21:02:00,72.0,68.0,30.27,South,181,0.0,-999.0,87,-99.99,,,-99.99,,2013-07-14 01:02:00,
2013-07-13 21:11:00,71.0,68.0,30.26,South,182,0.0,-999.0,89,-99.99,,,-99.99,,2013-07-14 01:11:00,
2013-07-13 21:22:00,71.0,68.0,30.26,South,182,0.0,-999.0,89,-99.99,,,-99.99,,2013-07-14 01:22:00,
2013-07-13 21:32:00,71.0,68.0,30.26,South,182,0.0,-999.0,90,-99.99,,,-99.99,,2013-07-14 01:32:00,
2013-07-13 21:43:00,71.0,68.0,30.25,South,182,0.0,-999.0,90,-99.99,,,-99.99,,2013-07-14 01:43:00,
2013-07-13 21:52:00,71.0,68.0,30.25,South,182,0.0,-999.0,90,-99.99,,,-99.99,,2013-07-14 01:52:00,
2013-07-13 22:02:00,70.0,67.0,30.25,South,182,0.0,-999.0,91,-99.99,,,-99.99,,2013-07-14 02:02:00,
2013-07-13 22:11:00,70.0,67.0,30.25,South,182,0.0,-999.0,91,-99.99,,,-99.99,,2013-07-14 02:11:00,
2013-07-13 22:22:00,70.0,67.0,30.25,South,182,0.0,-999.0,91,-99.99,,,-99.99,,2013-07-14 02:22:00,
2013-07-13 22:32:00,69.0,67.0,30.25,South,182,0.0,-999.0,92,-99.99,,,-99.99,,2013-07-14 02:32:00,
2013-07-13 22:43:00,69.0,67.0,30.25,South,181,0.0,-999.0,92,-99.99,,,-99.99,,2013-07-14 02:43:00,
2013-07-13 22:53:00,69.0,67.0,30.25,South,181,0.0,-999.0,92,-99.99,,,-99.99,,2013-07-14 02:53:00,
2013-07-13 23:02:00,69.0,67.0,30.25,South,181,0.0,-999.0,93,-99.99,,,-99.99,,2013-07-14 03:02:00,
2013-07-13 23:11:00,69.0,67.0,30.26,South,181,0.0,-999.0,93,-99.99,,,-99.99,,2013-07-14 03:11:00,
2013-07-13 23:22:00,69.0,67.0,30.26,South,181,0.0,-999.0,93,-99.99,,,-99.99,,2013-07-14 03:22:00,
2013-07-13 23:32:00,69.0,67.0,30.26,South,181,0.0,-999.0,93,-99.99,,,-99.99,,2013-07-14 03:32:00,
2013-07-13 23:43:00,68.0,66.0,30.26,South,182,0.0,-999.0,93,-99.99,,,-99.99,,2013-07-14 03:43:00,
2013-07-13 23:53:00,68.0,66.0,30.26,South,182,0.0,-999.0,93,-99.99,,,-99.99,,2013-07-14 03:53:00,